Volver al catálogo

CALSPHERE 1

ActivoCienciaPO
NORAD 900·PAYLOAD·🇺🇸 United States

Lanzado Oct 6, 1964 desde Vandenberg Space Force Base

Loading…

Próximos Pases (próximas 24 horas)

TLE

ActualizadoSource: Space-Track

Época: Sep 14, 2026, 11:42 UTC

1 00900U 64063C   26257.48799447  .00000447  00000-0  44475-3 0  9994
2 00900  90.2176  73.8381 0026728  26.2035   2.7230 13.76703763 83715

Sigue CALSPHERE 1 en tiempo real con AllMySat

Download on the App Store